Location: Newark
(35.4036°N, 80.4356°W)
Time: 19:24:30
(UTC+00:00)

OTV 5 (USA 277) - Visible Passes

Search period start: 20 August 2019 00:00
Search period end: 30 August 2019 00:00
Orbit: 305 x 329 km, 54.5° (Epoch: 20 August)

Date Brightness Start Highest point End Pass type
(mag) Time Alt. Az. Time Alt. Az. Time Alt. Az.
20 Aug ? 09:50:12 10° NNW 09:52:19 21° NE 09:54:26 10° E visible
21 Aug ? 10:04:20 10° NW 10:06:57 72° NE 10:09:34 10° SE visible
22 Aug ? 08:45:34 10° N 08:47:03 14° NE 08:48:33 10° ENE visible
23 Aug ? 01:02:34 10° S 01:04:57 28° SE 01:05:00 28° SE visible
23 Aug ? 09:01:43 36° NE 09:01:46 36° NE 09:04:14 10° ESE visible
24 Aug ? 01:16:43 10° SW 01:19:25 72° NW 01:21:24 16° NE visible
24 Aug ? 09:18:45 11° SSE 09:18:45 11° SSE 09:18:53 10° SSE visible
25 Aug ? 01:31:50 10° W 01:34:02 22° NW 01:36:14 10° NNE visible
27 Aug ? 00:26:15 10° WSW 00:28:49 37° NW 00:31:22 10° NNE visible
28 Aug ? 00:41:53 10° WNW 00:43:31 15° NW 00:45:09 10° N visible
